SCP
0 0 0 0 0 0 0 0 0 0 0 0 0 0 0 0 0 0 0 1 1 1 1 1 1 1 1 1 1 1 1 1 0 0 0 0 0 0 0 0 0 0 0
0 0 0 0 0 0 0 0 0 0 0 0 0 0 0 0 0 0 0 1 1 1 1 1 1 1 1 1 1 1 1 1 1 0 0 0 0 0 0 0 0 0 0
0 0 0 0 0 0 0 0 0 0 0 0 0 0 0 0 0 0 0 0 1 1 1 1 1 1 1 1 1 1 1 1 1 1 1 0 0 0 0 0 0 0 0
0 0 0 0 0 0 0 0 0 0 0 0 0 0 0 0 0 0 0 0 0 0 1 1 1 1 1 1 1 1 1 1 1 1 1 0 0 0 0 0 0 0 0
0 0 0 0 0 0 0 0 0 0 0 0 0 0 0 0 0 0 0 0 0 0 0 1 1 1 1 1 1 1 1 1 1 1 0 0 0 0 0 0 0 0 0
0 0 0 0 0 0 0 0 0 0 0 0 0 0 0 0 0 0 0 0 0 0 0 0 0 1 1 1 1 1 1 1 1 1 0 0 0 0 0 0 0 0 0
0 0 0 0 0 0 0 0 0 0 0 0 0 0 0 0 0 0 0 0 0 0 0 0 0 0 0 0 0 0 0 0 0 0 0 0 0 0 0 0 0 0 0
0 0 0 0 0 0 0 0 0 0 0 0 0 0 0 0 0 0 0 0 0 0 0 0 0 0 0 0 0 0 0 0 0 0 0 0 0 0 0 0 0 0 0
0 0 0 0 0 0 0 0 0 0 0 0 0 0 0 0 0 0 0 0 0 0 0 0 0 0 0 0 0 0 0 0 0 0 0 0 0 0 0 0 0 0 0
0 0 0 0 0 0 0 0 0 0 0 0 0 0 0 0 0 0 0 0 0 0 0 0 0 0 0 0 0 0 0 0 0 0 0 0 0 0 0 0 0 0 0
0 0 0 0 0 0 0 0 0 0 0 0 0 0 0 0 0 0 0 0 0 0 0 0 0 0 0 0 0 0 0 0 0 0 0 0 0 0 0 0 0 0 0
0 0 0 0 0 0 0 0 0 0 0 0 0 0 0 0 0 0 0 0 0 0 0 0 0 0 0 0 0 0 0 0 0 0 0 0 0 0 0 0 0 0 0
0 0 0 0 0 0 0 0 0 0 0 0 0 0 0 0 0 0 0 0 0 0 0 0 0 0 0 0 0 0 0 0 0 0 0 0 0 0 0 0 0 0 0
0 0 0 0 0 0 0 0 0 0 0 0 0 0 0 0 0 0 0 0 0 0 0 0 0 0 0 0 0 0 0 0 0 0 0 0 0 0 0 0 0 0 0
0 0 0 0 0 0 0 0 0 0 0 0 0 0 0 0 0 0 0 0 0 0 0 0 0 0 0 0 0 0 0 0 0 0 0 0 0 0 0 0 0 0 0
0 0 0 0 0 0 0 0 0 0 0 0 0 0 0 0 0 0 0 0 0 0 0 0 0 0 0 0 0 0 0 0 0 0 0 0 0 0 0 0 0 0 0
0 0 0 0 0 0 0 0 0 0 0 0 0 0 0 0 0 0 0 0 0 0 0 0 0 0 0 0 0 0 0 0 0 0 0 0 0 0 0 0 0 0 0
0 0 0 0 0 0 0 0 0 0 0 0 0 0 0 0 0 0 0 0 0 0 0 0 0 0 0 0 0 0 0 0 0 0 0 0 0 0 0 0 0 0 0
0 0 0 0 0 0 0 0 0 0 0 0 0 0 0 0 0 0 0 0 0 0 0 0 0 0 0 0 0 0 0 0 0 0 0 0 0 0 0 0 0 0 0
0 0 0 0 0 0 0 0 0 0 0 0 0 0 0 0 0 0 0 0 0 0 0 0 0 0 0 0 0 0 0 0 0 0 0 0 0 0 0 0 0 0 0
0 0 0 0 0 0 0 0 0 0 0 0 0 0 0 0 0 0 0 0 0 0 0 0 0 0 0 0 0 0 0 0 0 0 0 0 0 0 0 0 0 0 0
0 0 0 0 0 0 0 0 0 0 0 0 0 0 0 0 0 0 0 0 0 0 0 0 0 0 0 0 0 0 0 0 0 0 0 0 0 0 0 0 0 0 0
0 0 0 0 0 0 0 0 0 0 0 0 0 0 0 0 0 0 0 0 0 0 0 0 0 0 0 0 0 0 0 0 0 0 -0 0 0 0 0 0 0 0 0
0 0 0 0 0 0 0 0 0 0 0 0 0 0 0 0 0 0 0 0 0 0 0 0 0 0 0 0 0 0 0 0 0 0 -0 -0 0 0 0 0 0 0 0
0 0 0 0 0 0 0 0 0 0 0 0 0 0 0 0 0 0 0 0 0 0 0 0 0 0 0 0 0 0 0 0 0 0 0 -0 -0 0 0 0 0 0 0
0 0 0 0 0 0 0 0 0 0 0 0 0 0 0 0 0 0 0 0 0 0 0 0 0 0 0 0 0 0 0 0 0 0 0 -0 0 0 0 0 0 0 0
Wind_Speed
4 4 3 3 3 3 3 3 3 3 3 3 3 3 3 3 3 3 3 11 13 14 15 16 16 16 15 14 14 13 12 12 11 11 10 9 9 8 8 8 7 7 7
4 5 4 4 4 3 3 3 3 2 2 1 1 0 0 1 1 2 2 5 9 11 12 13 15 15 15 14 13 13 12 12 11 10 10 9 9 8 8 8 8 7 7
5 5 4 3 3 3 3 2 1 1 1 0 0 1 1 2 2 1 1 1 3 7 8 10 12 13 13 14 13 12 12 11 10 10 10 9 9 8 7 7 7 7 7
4 4 3 2 2 1 1 1 1 1 0 1 1 1 1 1 2 2 1 1 1 2 5 8 9 11 12 12 13 12 11 11 10 9 9 8 8 7 7 7 7 7 7
3 4 3 2 2 2 2 1 1 1 1 1 1 1 1 1 1 1 1 1 1 1 1 3 7 8 9 9 9 10 10 9 8 7 7 7 6 6 6 6 6 6 7
4 4 3 3 3 3 2 2 2 2 1 1 1 1 1 1 1 1 1 1 1 1 1 1 1 3 7 8 8 9 9 8 7 6 5 4 3 3 3 4 4 5 6
7 6 4 4 4 3 3 2 2 3 2 2 1 2 2 2 1 1 1 1 1 1 1 1 0 0 1 5 6 7 7 7 6 5 4 3 2 2 1 2 4 5 5
8 7 7 5 5 4 5 5 3 1 2 2 1 1 2 3 2 3 2 2 2 2 2 2 1 1 1 1 3 5 5 4 4 3 2 1 1 2 3 4 5 6 7
10 9 9 7 7 6 5 5 4 3 1 2 2 1 1 1 1 2 3 3 3 3 3 2 3 3 2 2 2 4 6 6 5 4 4 4 4 4 4 5 6 7 8
11 10 9 9 8 6 7 7 7 4 3 2 2 3 1 1 0 1 1 2 3 3 3 3 3 3 4 3 4 6 8 7 6 6 5 5 5 5 6 7 8 9 10
10 10 9 9 8 7 8 9 8 8 6 5 3 3 3 3 2 1 1 2 3 2 3 3 2 2 2 2 2 4 6 5 5 4 4 4 5 6 7 8 9 10 11
8 9 10 9 8 7 8 8 8 9 7 7 6 6 4 3 3 2 1 2 2 3 3 3 3 2 1 1 1 3 3 3 2 1 1 3 5 7 8 9 10 11 12
7 8 8 7 7 7 7 7 8 8 8 8 7 5 5 4 3 2 2 2 2 2 3 3 3 2 2 1 0 1 1 1 2 3 5 6 7 8 9 10 11 11 12
6 7 7 7 7 7 8 7 6 6 6 7 7 6 4 4 4 4 2 2 2 3 3 4 3 3 2 1 1 2 1 3 5 6 7 8 10 11 11 11 12 12 13
6 7 7 7 7 7 7 6 6 6 6 6 5 5 4 4 4 4 3 2 2 2 3 4 3 4 3 2 2 2 2 6 8 9 10 11 12 13 13 13 13 13 14
6 6 7 7 7 7 7 6 5 5 6 4 3 5 4 3 4 4 3 3 2 1 1 2 2 3 4 3 4 3 4 9 10 10 11 12 12 13 14 14 14 14 14
6 6 6 6 7 7 6 6 5 5 5 5 4 5 4 3 3 4 3 3 3 2 1 3 2 3 3 4 5 4 4 4 5 10 12 12 12 12 12 13 14 14 15
5 5 6 6 6 6 6 6 6 6 5 5 5 4 4 4 4 3 3 3 3 2 1 3 3 3 4 4 4 5 4 4 4 9 11 11 11 11 11 12 13 13 14
5 5 5 6 5 5 6 5 5 5 5 4 4 4 3 3 3 2 3 3 2 3 1 1 3 3 3 3 4 4 5 4 6 7 9 9 10 11 11 12 12 13 13
4 4 4 4 4 5 5 5 5 5 5 5 4 4 3 2 1 2 2 3 3 3 3 2 3 3 3 4 2 3 4 4 5 6 6 7 8 10 11 11 12 12 11
4 3 4 4 4 4 4 5 5 5 5 5 5 5 4 3 4 2 2 3 3 2 3 3 3 3 4 3 3 3 3 5 5 3 3 5 5 4 6 9 10 11 10
3 4 4 3 3 3 6 8 6 4 4 4 5 5 4 4 6 7 9 8 6 3 3 2 2 4 5 4 3 3 2 3 5 3 2 5 3 4 5 4 8 10 10
2 3 2 3 2 3 7 9 9 4 4 4 4 4 3 4 4 4 8 10 9 9 6 3 3 5 4 4 3 4 3 3 4 4 2 4 3 4 5 5 10 10 9
1 1 1 2 2 3 6 9 9 6 4 5 4 3 2 3 3 4 5 7 7 7 7 4 4 6 7 6 5 4 3 4 5 4 2 3 3 4 5 4 8 8 9
1 1 1 2 1 2 5 7 8 4 4 6 5 4 3 3 6 7 5 6 8 7 7 8 9 9 11 11 6 2 2 1 3 4 1 1 3 4 4 4 5 9 10
1 1 1 1 1 1 4 6 7 3 4 5 5 5 6 7 9 9 4 4 6 7 7 9 9 9 7 7 6 4 3 2 2 3 3 1 2 3 4 4 4 4 5
Wind_Direction
186 186 194 195 201 202 205 213 219 223 239 253 261 261 259 232 211 206 213 202 199 201 199 197 195 193 193 193 192 191 192 192 191 190 189 188 187 186 185 185 186 188 190
177 181 188 192 200 200 201 202 207 209 222 231 250 243 189 183 176 174 188 199 202 204 205 203 202 200 198 196 194 192 192 193 192 191 191 192 192 191 190 190 193 195 197
172 173 176 181 197 193 193 191 193 177 181 144 42 43 63 64 99 128 164 188 204 207 206 210 206 202 197 196 195 194 192 191 191 192 194 194 194 194 196 199 201 202 203
158 144 144 152 162 143 130 135 137 122 64 59 40 22 47 59 68 84 97 150 193 209 214 214 211 205 202 200 198 196 195 193 193 193 193 194 196 198 201 206 209 211 211
123 118 114 103 100 87 71 80 75 94 51 9 14 45 22 39 53 78 88 90 123 179 204 212 205 201 199 199 198 194 193 190 188 190 195 199 200 200 202 207 212 215 218
81 89 84 72 72 72 54 54 65 55 55 8 357 31 9 28 58 53 75 89 106 142 154 165 185 196 194 194 199 200 198 191 185 185 187 185 184 191 195 211 226 233 234
62 66 65 58 59 64 52 48 66 56 32 4 30 5 358 19 52 50 71 74 55 53 83 95 129 150 189 192 191 196 194 190 181 182 187 192 195 207 232 253 256 257 256
58 65 62 60 52 53 43 32 36 54 26 18 50 40 342 351 14 31 37 49 41 35 40 51 53 79 107 114 135 162 163 164 165 161 160 175 238 255 272 276 274 273 269
56 58 58 60 54 48 46 37 30 48 56 27 32 93 167 256 324 15 35 38 40 41 31 31 46 51 69 68 80 107 108 102 105 93 73 52 27 4 349 331 315 302 291
52 53 57 61 59 56 51 43 40 37 51 40 16 24 47 66 306 307 357 13 30 40 30 30 41 59 69 72 82 95 97 91 86 72 52 29 4 343 332 322 313 307 301
50 52 57 61 62 59 57 53 48 47 49 51 39 15 19 26 22 21 341 346 4 9 17 20 41 61 74 82 92 101 100 95 82 69 47 16 352 338 328 319 313 308 304
57 52 58 61 61 62 62 60 57 53 53 55 52 45 40 37 14 22 22 350 354 346 9 19 26 38 60 71 97 123 123 112 98 63 342 320 321 324 322 317 313 310 307
68 56 57 58 57 57 58 58 60 56 51 54 52 47 44 42 27 22 45 7 0 343 1 13 11 11 23 33 2 175 158 190 246 262 272 280 288 295 299 299 299 302 303
72 64 60 58 55 55 56 53 54 51 50 51 50 45 42 31 29 31 38 33 16 359 9 357 347 7 4 354 314 302 265 270 270 269 271 274 278 283 287 286 284 285 288
77 68 64 61 55 53 53 54 53 47 48 47 42 40 39 25 25 26 34 46 67 19 348 344 346 349 347 336 306 293 276 272 274 274 274 273 272 274 277 277 276 277 278
70 70 64 60 56 51 49 51 50 44 48 37 36 37 32 22 24 24 28 33 53 95 338 313 315 309 323 331 310 282 267 280 280 282 283 281 278 275 275 275 274 274 274
68 69 66 62 56 48 42 45 41 39 39 28 25 32 25 26 25 18 20 26 29 49 358 300 290 305 318 316 313 299 281 272 278 286 287 287 283 279 279 278 276 274 274
65 69 69 64 60 51 42 41 37 34 35 30 19 21 13 21 20 12 18 17 8 18 23 311 306 313 305 304 302 304 306 307 297 295 295 295 293 288 283 279 276 274 272
66 68 73 69 59 49 41 35 34 30 25 18 9 6 353 13 3 353 7 5 346 353 357 312 300 298 299 313 325 320 320 317 315 310 306 304 302 299 294 288 282 278 274
76 75 75 73 64 52 40 28 24 23 11 0 353 348 337 337 328 334 347 340 333 336 334 328 309 306 304 308 328 322 323 321 313 312 316 317 314 312 306 298 292 285 278
84 85 80 67 56 49 32 26 15 13 4 353 347 345 341 3 12 2 343 318 320 317 319 319 309 312 309 320 317 303 306 308 304 298 318 311 310 306 306 306 303 293 285
63 71 76 77 55 38 22 23 21 8 359 356 345 341 343 14 9 2 352 342 330 306 295 282 284 296 289 284 282 288 297 325 313 299 319 301 302 297 294 287 291 295 292
67 78 84 84 62 16 16 15 17 20 4 353 343 338 348 4 7 349 337 338 333 324 311 255 258 273 270 268 273 287 280 270 265 273 310 292 303 298 294 303 311 309 304
78 94 103 104 67 8 12 16 16 20 7 355 345 338 337 331 328 329 326 326 319 312 304 290 249 262 263 263 242 238 253 279 278 273 222 270 297 296 303 310 316 322 319
59 96 127 127 83 348 357 12 20 5 358 348 342 341 327 310 307 323 326 321 318 312 308 310 298 287 284 282 265 237 275 304 309 301 284 250 290 306 308 308 315 327 324
88 100 115 146 149 322 340 0 14 6 352 338 331 328 320 312 313 319 303 299 305 303 315 323 322 319 309 304 292 217 213 220 262 290 283 288 297 334 324 303 303 317 325